パンスターズ彗星

C/2015 A2 ( PanSTARRS )

English version
Home page
Updated on February 20, 2021

---------------------------------------------------------------------

・ プロフィール

発見日 2015年1月12日
発見光度 21.1等
発見者 Pan-STARRS 1 telescope (Haleakala)

・ 軌道要素

Epoch 2015 Sept. 15.0 TT = JDT 2457280.5                                        
T 2015 Sept. 2.71458 TT                                 Rudenko                 
q   5.2538514            (2000.0)            P               Q                  
z  -0.0014620      Peri.  212.75763     +0.33891346     +0.15733126             
 +/-0.0003135      Node   258.46975     +0.92778412     -0.21943046             
e   1.0076810      Incl.  108.79566     -0.15605861     -0.96285884             
From 21 observations 2014 Dec. 2-2015 Jan. 21, mean residual 0".2.              

・ 光度変化

        m1 = 10.0 + 5 logΔ + 10.0 log r

---------------------------------------------------------------------

軌道要素はM.P.E.C. 2021-B143に掲載されたものです。
光度グラフはComet for Windowsで作成したものです。

---------------------------------------------------------------------

Copyright(C) Seiichi Yoshida (comet@aerith.net). All rights reserved.